,,,PA_Meas_PMT16A,,PR_Meas_QMR101_102,,RH_Meas_QMH101,,SR_Meas_QMS101,,TA_Meas_QMH101,,GenWind,,GenWind,
date,time,status,PA,status,PR,status,RH,status,SR,status,TA,status,DirAvg,status,SpdAvg,
2012-06-10, 00:00:05,VALID,999.806,VALID,0,VALID,92.0361,VALID,0,VALID,24.1287,VALID,107,VALID,0.196484,
2012-06-10, 00:01:05,VALID,999.768,VALID,0,VALID,92.3566,VALID,0,VALID,24.0701,VALID,107,VALID,0.647266,
2012-06-10, 00:02:05,VALID,999.775,VALID,0,VALID,92.6007,VALID,0,VALID,24.0525,VALID,107,VALID,0.670313,
2012-06-10, 00:03:05,VALID,999.773,VALID,0,VALID,92.6923,VALID,0,VALID,23.9744,VALID,22,VALID,0.844141,
2012-06-10, 00:04:05,VALID,999.775,VALID,0,VALID,92.8525,VALID,0,VALID,23.9159,VALID,22,VALID,0.749219,
2012-06-10, 00:05:05,VALID,999.755,VALID,0,VALID,93.0585,VALID,0,VALID,23.8555,VALID,22,VALID,0.771484,
2012-06-10, 00:06:05,VALID,999.75,VALID,0,VALID,93.3255,VALID,0,VALID,23.8573,VALID,22,VALID,0.53125,
2012-06-10, 00:07:05,VALID,999.736,VALID,0,VALID,93.44,VALID,0,VALID,23.797,VALID,22,VALID,0.695313,
2012-06-10, 00:08:05,VALID,999.711,VALID,0,VALID,93.6765,VALID,0.104696,VALID,23.7775,VALID,22,VALID,0.478125,
2012-06-10, 00:09:05,VALID,999.668,VALID,0,VALID,93.7146,VALID,0,VALID,23.7775,VALID,22,VALID,0.527344,
2012-06-10, 00:10:05,VALID,999.649,VALID,0,VALID,93.6154,VALID,0,VALID,23.7189,VALID,22,VALID,0.471094,
2012-06-10, 00:11:05,VALID,999.661,VALID,0,VALID,93.7146,VALID,0,VALID,23.7207,VALID,22,VALID,0.817187,
2012-06-10, 00:12:05,VALID,999.632,VALID,0,VALID,93.7299,VALID,0,VALID,23.6817,VALID,29,VALID,0.941797,
2012-06-10, 00:13:05,VALID,999.622,VALID,0,VALID,93.8748,VALID,0,VALID,23.6604,VALID,34,VALID,1.18125,
2012-06-10, 00:14:05,VALID,999.626,VALID,0,VALID,94.0274,VALID,0,VALID,23.7012,VALID,34,VALID,0.786328,
2012-06-10, 00:15:05,VALID,999.609,VALID,0,VALID,94.0808,VALID,0,VALID,23.6604,VALID,19,VALID,1.0793,
2012-06-10, 00:16:05,VALID,999.619,VALID,0,VALID,94.0961,VALID,0,VALID,23.6622,VALID,19,VALID,0.603125,
2012-06-10, 00:17:05,VALID,999.581,VALID,0,VALID,94.0732,VALID,0,VALID,23.6427,VALID,19,VALID,0.746484,
2012-06-10, 00:18:05,VALID,999.593,VALID,0,VALID,94.1419,VALID,0,VALID,23.6232,VALID,6,VALID,0.864844,
2012-06-10, 00:19:05,VALID,999.587,VALID,0,VALID,94.2563,VALID,0,VALID,23.6232,VALID,5,VALID,0.224219,
2012-06-10, 00:20:05,VALID,999.59,VALID,0,VALID,94.2868,VALID,0,VALID,23.6019,VALID,5,VALID,0.000390625,
2012-06-10, 00:21:05,VALID,999.589,VALID,0,VALID,94.2792,VALID,0,VALID,23.5823,VALID,5,VALID,0.557813,
2012-06-10, 00:22:05,VALID,999.586,VALID,0,VALID,94.325,VALID,0,VALID,23.5823,VALID,5,VALID,0.433594,
2012-06-10, 00:23:05,VALID,999.562,VALID,0,VALID,94.3708,VALID,0,VALID,23.6019,VALID,5,VALID,0.266797,
2012-06-10, 00:24:05,VALID,999.568,VALID,0,VALID,94.3784,VALID,0,VALID,23.6214,VALID,5,VALID,0.202734,
2012-06-10, 00:25:05,VALID,999.551,VALID,0,VALID,94.325,VALID,0,VALID,23.6427,VALID,5,VALID,0.232422,
2012-06-10, 00:26:05,VALID,999.555,VALID,0,VALID,94.3403,VALID,0,VALID,23.6409,VALID,5,VALID,0.819922,
2012-06-10, 00:27:05,VALID,999.515,VALID,0,VALID,94.2792,VALID,0,VALID,23.7207,VALID,14,VALID,0.348047,
2012-06-10, 00:28:05,VALID,999.484,VALID,0,VALID,93.8748,VALID,0,VALID,23.7988,VALID,14,VALID,0.226563,
2012-06-10, 00:29:05,VALID,999.481,VALID,0,VALID,93.234,VALID,0,VALID,23.8963,VALID,14,VALID,0.0105469,
2012-06-10, 00:30:05,VALID,999.475,VALID,0,VALID,92.5091,VALID,0,VALID,23.9354,VALID,14,VALID,0.0125,
2012-06-10, 00:31:05,VALID,999.435,VALID,0,VALID,92.059,VALID,0,VALID,23.9549,VALID,14,VALID,0.468359,
2012-06-10, 00:32:05,VALID,999.419,VALID,0,VALID,91.9445,VALID,0,VALID,23.9531,VALID,14,VALID,0.567969,
2012-06-10, 00:33:05,VALID,999.42,VALID,0,VALID,91.7691,VALID,0,VALID,24.0134,VALID,14,VALID,0.455859,
2012-06-10, 00:34:05,VALID,999.374,VALID,0,VALID,91.5554,VALID,0,VALID,24.072,VALID,14,VALID,0.387109,
2012-06-10, 00:35:05,VALID,999.372,VALID,0,VALID,91.1663,VALID,0,VALID,24.1305,VALID,14,VALID,0.16875,
2012-06-10, 00:36:05,VALID,999.349,VALID,0,VALID,90.7696,VALID,0,VALID,24.1305,VALID,14,VALID,0.294141,
2012-06-10, 00:37:05,VALID,999.37,VALID,0,VALID,90.7085,VALID,0,VALID,24.1305,VALID,14,VALID,0.00195313,
2012-06-10, 00:38:04,VALID,999.349,VALID,0,VALID,90.9374,VALID,0,VALID,24.1305,VALID,14,VALID,0,
2012-06-10, 00:39:04,VALID,999.331,VALID,0,VALID,91.0214,VALID,0,VALID,24.1305,VALID,14,VALID,0.0824219,
2012-06-10, 00:40:04,VALID,999.34,VALID,0,VALID,90.9222,VALID,0,VALID,24.0915,VALID,14,VALID,0.114063,
2012-06-10, 00:41:04,VALID,999.314,VALID,0,VALID,91.09,VALID,0,VALID,24.0897,VALID,14,VALID,0.107422,
2012-06-10, 00:42:04,VALID,999.32,VALID,0,VALID,91.0214,VALID,0,VALID,24.0915,VALID,14,VALID,0.256641,
2012-06-10, 00:43:04,VALID,999.298,VALID,0,VALID,90.9069,VALID,0,VALID,24.111,VALID,14,VALID,0,
2012-06-10, 00:44:04,VALID,999.313,VALID,0,VALID,90.8459,VALID,0,VALID,24.111,VALID,14,VALID,0.00195313,
2012-06-10, 00:45:04,VALID,999.32,VALID,0,VALID,90.8306,VALID,0,VALID,24.15,VALID,14,VALID,0.111719,
2012-06-10, 00:46:04,VALID,999.297,VALID,0,VALID,90.8993,VALID,0,VALID,24.15,VALID,14,VALID,0.346875,
2012-06-10, 00:47:04,VALID,999.295,VALID,0,VALID,90.9832,VALID,0,VALID,24.15,VALID,14,VALID,0.325,
2012-06-10, 00:48:04,VALID,999.271,VALID,0,VALID,90.8077,VALID,0,VALID,24.1696,VALID,14,VALID,0.336328,
2012-06-10, 00:49:04,VALID,999.253,VALID,0,VALID,90.5788,VALID,0,VALID,24.1891,VALID,14,VALID,0.435937,
2012-06-10, 00:50:04,VALID,999.227,VALID,0,VALID,90.3652,VALID,0,VALID,24.2281,VALID,14,VALID,0.357031,
2012-06-10, 00:51:04,VALID,999.196,VALID,0,VALID,89.938,VALID,0,VALID,24.2458,VALID,14,VALID,0.332422,
2012-06-10, 00:52:04,VALID,999.206,VALID,0,VALID,89.8235,VALID,0,VALID,24.3043,VALID,13,VALID,0.617188,
2012-06-10, 00:53:04,VALID,999.188,VALID,0,VALID,89.4191,VALID,0,VALID,24.3257,VALID,13,VALID,0.331641,
2012-06-10, 00:54:04,VALID,999.18,VALID,0,VALID,88.9537,VALID,0,VALID,24.3647,VALID,13,VALID,0.355078,
2012-06-10, 00:55:04,VALID,999.21,VALID,0,VALID,88.6333,VALID,0,VALID,24.4233,VALID,13,VALID,0,
2012-06-10, 00:56:04,VALID,999.164,VALID,0,VALID,88.4883,VALID,0,VALID,24.4037,VALID,13,VALID,0,
2012-06-10, 00:57:04,VALID,999.186,VALID,0,VALID,88.5189,VALID,0,VALID,24.4037,VALID,13,VALID,0.0839844,
2012-06-10, 00:58:04,VALID,999.172,VALID,0,VALID,88.4807,VALID,0,VALID,24.3647,VALID,13,VALID,0.105078,
2012-06-10, 00:59:04,VALID,999.163,VALID,0,VALID,88.702,VALID,0,VALID,24.3452,VALID,13,VALID,0.527344,
2012-06-10, 01:00:04,VALID,999.199,VALID,0,VALID,88.6943,VALID,0,VALID,24.3452,VALID,13,VALID,0.246094,
2012-06-10, 01:01:04,VALID,999.198,VALID,0,VALID,88.4807,VALID,0,VALID,24.3647,VALID,13,VALID,0,
2012-06-10, 01:02:04,VALID,999.182,VALID,0,VALID,88.8088,VALID,0,VALID,24.3842,VALID,13,VALID,0.542578,
2012-06-10, 01:03:04,VALID,999.173,VALID,0,VALID,88.3052,VALID,0,VALID,24.3842,VALID,13,VALID,0.555469,
2012-06-10, 01:04:04,VALID,999.176,VALID,0,VALID,88.1984,VALID,0,VALID,24.3842,VALID,29,VALID,0.951563,
2012-06-10, 01:05:04,VALID,999.171,VALID,0,VALID,88.5951,VALID,0,VALID,24.2866,VALID,42,VALID,1.16289,
2012-06-10, 01:06:04,VALID,999.159,VALID,0,VALID,88.8317,VALID,0,VALID,24.2281,VALID,54,VALID,1.29844,
2012-06-10, 01:07:04,VALID,999.185,VALID,0,VALID,90.144,VALID,0,VALID,24.1128,VALID,62,VALID,1.41211,
2012-06-10, 01:08:04,VALID,999.153,VALID,0,VALID,91.0671,VALID,0,VALID,23.9744,VALID,63,VALID,1.07578,
2012-06-10, 01:09:04,VALID,999.162,VALID,0,VALID,91.6623,VALID,0,VALID,23.8963,VALID,63,VALID,0.483984,
2012-06-10, 01:10:04,VALID,999.147,VALID,0,VALID,91.7385,VALID,0,VALID,23.8573,VALID,63,VALID,0.0285156,
2012-06-10, 01:11:04,VALID,999.161,VALID,0,VALID,91.8377,VALID,0,VALID,23.8183,VALID,63,VALID,0.0378906,
2012-06-10, 01:12:04,VALID,999.121,VALID,0,VALID,92.1353,VALID,0,VALID,23.7988,VALID,63,VALID,0.40625,
2012-06-10, 01:13:04,VALID,999.142,VALID,0,VALID,92.3489,VALID,0,VALID,23.7597,VALID,52,VALID,0.419531,
2012-06-10, 01:14:04,VALID,999.134,VALID,0,VALID,92.5091,VALID,0,VALID,23.7012,VALID,22,VALID,0.384766,
2012-06-10, 01:15:04,VALID,999.155,VALID,0,VALID,92.6312,VALID,0,VALID,23.6622,VALID,40,VALID,0.608594,
2012-06-10, 01:16:04,VALID,999.124,VALID,0,VALID,92.9288,VALID,0,VALID,23.6232,VALID,62,VALID,0.914453,
2012-06-10, 01:17:04,VALID,999.092,VALID,0,VALID,93.2416,VALID,0,VALID,23.6054,VALID,62,VALID,0.735156,
2012-06-10, 01:18:04,VALID,999.078,VALID,0,VALID,93.44,VALID,0,VALID,23.5646,VALID,62,VALID,0.363281,
2012-06-10, 01:19:04,VALID,999.068,VALID,0,VALID,93.5849,VALID,0,VALID,23.5646,VALID,62,VALID,0.316797,
2012-06-10, 01:20:04,VALID,999.072,VALID,0,VALID,93.646,VALID,0,VALID,23.5451,VALID,62,VALID,0.267578,
2012-06-10, 01:21:04,VALID,999.07,VALID,0,VALID,93.6765,VALID,0,VALID,23.5061,VALID,63,VALID,0.249219,
2012-06-10, 01:22:04,VALID,999.08,VALID,0,VALID,93.768,VALID,0,VALID,23.4866,VALID,63,VALID,0.291016,
2012-06-10, 01:23:04,VALID,999.051,VALID,0,VALID,93.768,VALID,0,VALID,23.428,VALID,63,VALID,0.101563,
2012-06-10, 01:24:04,VALID,999.023,VALID,0,VALID,93.8901,VALID,0,VALID,23.4085,VALID,62,VALID,0.476172,
2012-06-10, 01:25:04,VALID,999.031,VALID,0,VALID,94.0045,VALID,0,VALID,23.4103,VALID,63,VALID,0.512891,
2012-06-10, 01:26:04,VALID,999.058,VALID,0,VALID,94.1343,VALID,0,VALID,23.389,VALID,62,VALID,0.39375,
2012-06-10, 01:27:04,VALID,999.046,VALID,0,VALID,94.2258,VALID,0,VALID,23.389,VALID,63,VALID,0.316406,
2012-06-10, 01:28:04,VALID,999.069,VALID,0,VALID,94.3326,VALID,0,VALID,23.389,VALID,63,VALID,0.785547,
2012-06-10, 01:29:04,VALID,999.039,VALID,0,VALID,94.5081,VALID,0,VALID,23.428,VALID,62,VALID,0.663281,
2012-06-10, 01:30:04,VALID,999.048,VALID,0,VALID,94.5234,VALID,0,VALID,23.428,VALID,62,VALID,0.680859,
2012-06-10, 01:31:04,VALID,999.054,VALID,0,VALID,94.47,VALID,0,VALID,23.389,VALID,59,VALID,0.592188,
2012-06-10, 01:32:04,VALID,999.013,VALID,0,VALID,94.386,VALID,0,VALID,23.389,VALID,51,VALID,0.610156,
2012-06-10, 01:33:04,VALID,999.014,VALID,0,VALID,94.3403,VALID,0,VALID,23.389,VALID,17,VALID,0.821094,
2012-06-10, 01:34:04,VALID,999.029,VALID,0,VALID,94.3021,VALID,0,VALID,23.3695,VALID,17,VALID,0.395312,
2012-06-10, 01:35:04,VALID,999.022,VALID,0,VALID,94.2105,VALID,0,VALID,23.3305,VALID,17,VALID,0.198437,
2012-06-10, 01:36:04,VALID,999.042,VALID,0,VALID,94.1571,VALID,0,VALID,23.311,VALID,17,VALID,0.410156,
2012-06-10, 01:37:04,VALID,999.016,VALID,0,VALID,94.264,VALID,0,VALID,23.311,VALID,17,VALID,0.441406,
2012-06-10, 01:38:04,VALID,999.034,VALID,0,VALID,94.3555,VALID,0,VALID,23.3305,VALID,17,VALID,0.449219,
2012-06-10, 01:39:04,VALID,999.017,VALID,0,VALID,94.3937,VALID,0,VALID,23.311,VALID,17,VALID,0.265234,
2012-06-10, 01:40:04,VALID,999.014,VALID,0,VALID,94.4776,VALID,0,VALID,23.3305,VALID,17,VALID,0.565234,
2012-06-10, 01:41:04,VALID,998.987,VALID,0,VALID,94.5997,VALID,0,VALID,23.35,VALID,301,VALID,0.867578,
2012-06-10, 01:42:04,VALID,998.949,VALID,0,VALID,94.6912,VALID,0,VALID,23.3695,VALID,301,VALID,0.705469,
2012-06-10, 01:43:04,VALID,998.931,VALID,0,VALID,94.7141,VALID,0,VALID,23.389,VALID,327,VALID,0.850391,
2012-06-10, 01:44:04,VALID,998.89,VALID,0,VALID,94.6988,VALID,0,VALID,23.4085,VALID,339,VALID,1.03359,
2012-06-10, 01:45:04,VALID,998.895,VALID,0,VALID,94.6226,VALID,0,VALID,23.4085,VALID,339,VALID,0.926953,
2012-06-10, 01:46:04,VALID,998.912,VALID,0,VALID,94.4394,VALID,0,VALID,23.389,VALID,355,VALID,1.01563,
2012-06-10, 01:47:04,VALID,998.916,VALID,0,VALID,94.3021,VALID,0,VALID,23.3092,VALID,357,VALID,0.440625,
2012-06-10, 01:48:04,VALID,998.913,VALID,0,VALID,94.3097,VALID,0,VALID,23.311,VALID,357,VALID,1.13516,
2012-06-10, 01:49:04,VALID,998.929,VALID,0,VALID,94.4013,VALID,0,VALID,23.311,VALID,357,VALID,1.0875,
2012-06-10, 01:50:04,VALID,998.945,VALID,0,VALID,94.4471,VALID,0,VALID,23.3305,VALID,357,VALID,1.32383,
2012-06-10, 01:51:04,VALID,998.939,VALID,0,VALID,94.47,VALID,0,VALID,23.3695,VALID,357,VALID,1.2543,
2012-06-10, 01:52:04,VALID,998.964,VALID,0,VALID,94.4089,VALID,0,VALID,23.3695,VALID,8,VALID,1.2293,
2012-06-10, 01:53:04,VALID,998.929,VALID,0,VALID,94.3097,VALID,0,VALID,23.389,VALID,22,VALID,1.27305,
2012-06-10, 01:54:04,VALID,998.937,VALID,0,VALID,94.0961,VALID,0,VALID,23.35,VALID,41,VALID,1.40508,
2012-06-10, 01:55:04,VALID,998.956,VALID,0,VALID,93.974,VALID,0,VALID,23.311,VALID,59,VALID,1.6957,
2012-06-10, 01:56:04,VALID,998.923,VALID,0,VALID,94.0122,VALID,0,VALID,23.311,VALID,59,VALID,1.4207,
2012-06-10, 01:57:04,VALID,998.905,VALID,0,VALID,94.0656,VALID,0,VALID,23.3305,VALID,50,VALID,1.4875,
2012-06-10, 01:58:04,VALID,998.921,VALID,0,VALID,94.0808,VALID,0,VALID,23.3305,VALID,43,VALID,1.36016,
2012-06-10, 01:59:04,VALID,998.905,VALID,0,VALID,94.0808,VALID,0,VALID,23.2915,VALID,43,VALID,0.928516,
2012-06-10, 02:00:04,VALID,998.908,VALID,0,VALID,94.0351,VALID,0,VALID,23.311,VALID,43,VALID,1.25117,
2012-06-10, 02:01:04,VALID,998.916,VALID,0,VALID,94.0045,VALID,0,VALID,23.311,VALID,43,VALID,1.01328,
2012-06-10, 02:02:04,VALID,998.921,VALID,0,VALID,93.9359,VALID,0,VALID,23.311,VALID,29,VALID,0.903516,
2012-06-10, 02:03:04,VALID,998.904,VALID,0,VALID,93.852,VALID,0,VALID,23.2915,VALID,15,VALID,1.08711,
2012-06-10, 02:04:04,VALID,998.911,VALID,0,VALID,93.8138,VALID,0,VALID,23.2719,VALID,15,VALID,0.724219,
2012-06-10, 02:05:04,VALID,998.875,VALID,0,VALID,93.8443,VALID,0,VALID,23.2719,VALID,15,VALID,0.619922,
2012-06-10, 02:06:04,VALID,998.853,VALID,0,VALID,93.852,VALID,0,VALID,23.2329,VALID,15,VALID,0.647656,
2012-06-10, 02:07:04,VALID,998.833,VALID,0,VALID,93.8596,VALID,0,VALID,23.2134,VALID,35,VALID,0.986328,
2012-06-10, 02:08:04,VALID,998.833,VALID,0,VALID,93.9359,VALID,0,VALID,23.2737,VALID,37,VALID,0.962891,
2012-06-10, 02:09:04,VALID,998.813,VALID,0,VALID,93.8825,VALID,0,VALID,23.2719,VALID,37,VALID,0.827344,
2012-06-10, 02:10:04,VALID,998.79,VALID,0,VALID,93.852,VALID,0,VALID,23.2915,VALID,37,VALID,0.642969,
2012-06-10, 02:11:04,VALID,998.836,VALID,0,VALID,93.6841,VALID,0,VALID,23.3305,VALID,37,VALID,0.346484,
2012-06-10, 02:12:04,VALID,998.819,VALID,0,VALID,93.5468,VALID,0,VALID,23.35,VALID,37,VALID,0.575781,
2012-06-10, 02:13:04,VALID,998.832,VALID,0,VALID,93.3942,VALID,0,VALID,23.3092,VALID,37,VALID,0.426953,
2012-06-10, 02:14:04,VALID,998.839,VALID,0,VALID,93.4171,VALID,0,VALID,23.3305,VALID,37,VALID,0.498828,
2012-06-10, 02:15:04,VALID,998.828,VALID,0,VALID,93.4705,VALID,0,VALID,23.3323,VALID,37,VALID,0.491016,
2012-06-10, 02:16:04,VALID,998.8,VALID,0,VALID,93.4323,VALID,0,VALID,23.35,VALID,37,VALID,0.687891,
2012-06-10, 02:17:04,VALID,998.801,VALID,0,VALID,93.5239,VALID,0,VALID,23.3482,VALID,37,VALID,0.758594,
2012-06-10, 02:18:04,VALID,998.813,VALID,0,VALID,93.5697,VALID,0,VALID,23.3695,VALID,37,VALID,0.436719,
2012-06-10, 02:19:04,VALID,998.809,VALID,0,VALID,93.4552,VALID,0,VALID,23.35,VALID,37,VALID,0.3125,
2012-06-10, 02:20:04,VALID,998.812,VALID,0,VALID,93.3942,VALID,0,VALID,23.311,VALID,37,VALID,0.490234,
2012-06-10, 02:21:04,VALID,998.826,VALID,0,VALID,93.4247,VALID,0,VALID,23.2719,VALID,37,VALID,0.486719,
2012-06-10, 02:22:04,VALID,998.807,VALID,0,VALID,93.562,VALID,0,VALID,23.2524,VALID,37,VALID,0.384375,
2012-06-10, 02:23:04,VALID,998.816,VALID,0,VALID,93.646,VALID,0,VALID,23.2524,VALID,37,VALID,0.298828,
2012-06-10, 02:24:04,VALID,998.802,VALID,0,VALID,93.7146,VALID,0,VALID,23.2347,VALID,37,VALID,0.221484,
2012-06-10, 02:25:04,VALID,998.804,VALID,0,VALID,93.7985,VALID,0,VALID,23.2134,VALID,37,VALID,0.246875,
2012-06-10, 02:26:04,VALID,998.85,VALID,0,VALID,93.8062,VALID,0,VALID,23.1939,VALID,37,VALID,0,
2012-06-10, 02:27:04,VALID,998.863,VALID,0,VALID,93.8138,VALID,0,VALID,23.1762,VALID,37,VALID,0,
2012-06-10, 02:28:04,VALID,998.878,VALID,0,VALID,93.9359,VALID,0,VALID,23.1354,VALID,37,VALID,0,
2012-06-10, 02:29:04,VALID,998.897,VALID,0,VALID,94.0961,VALID,0,VALID,23.1566,VALID,37,VALID,0,
2012-06-10, 02:30:04,VALID,998.885,VALID,0,VALID,94.2563,VALID,0,VALID,23.1549,VALID,37,VALID,0,
2012-06-10, 02:31:04,VALID,998.903,VALID,0,VALID,94.3403,VALID,0,VALID,23.1354,VALID,37,VALID,0,
2012-06-10, 02:32:04,VALID,998.889,VALID,0,VALID,94.4165,VALID,0,VALID,23.1549,VALID,37,VALID,0.203516,
2012-06-10, 02:33:04,VALID,998.903,VALID,0,VALID,94.4852,VALID,0,VALID,23.1762,VALID,37,VALID,0,
2012-06-10, 02:34:04,VALID,998.901,VALID,0,VALID,94.5615,VALID,0,VALID,23.1744,VALID,37,VALID,0.096875,
2012-06-10, 02:35:04,VALID,998.916,VALID,0,VALID,94.6149,VALID,0,VALID,23.1744,VALID,37,VALID,0.618359,
2012-06-10, 02:36:04,VALID,998.879,VALID,0,VALID,94.6073,VALID,0,VALID,23.1939,VALID,26,VALID,0.801562,
2012-06-10, 02:37:04,VALID,998.892,VALID,0,VALID,94.6149,VALID,0,VALID,23.1939,VALID,15,VALID,0.987891,
2012-06-10, 02:38:04,VALID,998.908,VALID,0,VALID,94.5005,VALID,0,VALID,23.1744,VALID,15,VALID,0.730469,
2012-06-10, 02:39:04,VALID,998.902,VALID,0,VALID,94.4547,VALID,0,VALID,23.1744,VALID,15,VALID,0.826172,
2012-06-10, 02:40:04,VALID,998.924,VALID,0,VALID,94.5157,VALID,0,VALID,23.1939,VALID,15,VALID,0.785937,
2012-06-10, 02:41:04,VALID,998.938,VALID,0,VALID,94.4852,VALID,0,VALID,23.1744,VALID,15,VALID,1.0168,
2012-06-10, 02:42:04,VALID,998.956,VALID,0,VALID,94.4776,VALID,0,VALID,23.1939,VALID,15,VALID,1.07969,
2012-06-10, 02:43:04,VALID,998.946,VALID,0,VALID,94.3937,VALID,0,VALID,23.1744,VALID,15,VALID,1.09063,
2012-06-10, 02:44:04,VALID,998.995,VALID,0,VALID,94.5081,VALID,0,VALID,23.1939,VALID,15,VALID,0.652344,
2012-06-10, 02:45:04,VALID,998.987,VALID,0,VALID,94.5157,VALID,0,VALID,23.1939,VALID,15,VALID,0.457812,
2012-06-10, 02:46:04,VALID,998.982,VALID,0,VALID,94.4852,VALID,0,VALID,23.1744,VALID,15,VALID,0.683594,
2012-06-10, 02:47:04,VALID,998.983,VALID,0,VALID,94.4471,VALID,0,VALID,23.1549,VALID,15,VALID,0.925,
2012-06-10, 02:48:04,VALID,999.002,VALID,0,VALID,94.4013,VALID,0,VALID,23.1354,VALID,15,VALID,0.855078,
2012-06-10, 02:49:04,VALID,998.968,VALID,0,VALID,94.325,VALID,0,VALID,23.0964,VALID,15,VALID,1.26133,
2012-06-10, 02:50:04,VALID,998.999,VALID,0,VALID,94.386,VALID,0,VALID,23.0964,VALID,15,VALID,1.23203,
2012-06-10, 02:51:04,VALID,999.019,VALID,0,VALID,94.2563,VALID,0,VALID,23.0573,VALID,15,VALID,0.971484,
2012-06-10, 02:52:04,VALID,999.009,VALID,0,VALID,94.3097,VALID,0,VALID,23.0378,VALID,15,VALID,1.25,
2012-06-10, 02:53:04,VALID,999.022,VALID,0,VALID,94.3784,VALID,0,VALID,23.0591,VALID,15,VALID,0.936719,
2012-06-10, 02:54:04,VALID,999.045,VALID,0,VALID,94.4471,VALID,0,VALID,23.0378,VALID,15,VALID,0.150391,
2012-06-10, 02:55:04,VALID,999.011,VALID,0,VALID,94.5157,VALID,0,VALID,23.0573,VALID,15,VALID,0.0410156,
2012-06-10, 02:56:04,VALID,999.043,VALID,0,VALID,94.5539,VALID,0,VALID,23.0378,VALID,15,VALID,0.514063,
2012-06-10, 02:57:04,VALID,999.046,VALID,0,VALID,94.6836,VALID,0,VALID,23.0573,VALID,15,VALID,0.767578,
2012-06-10, 02:58:04,VALID,999.065,VALID,0,VALID,94.7904,VALID,0,VALID,23.0964,VALID,15,VALID,0.525391,
2012-06-10, 02:59:04,VALID,999.047,VALID,0,VALID,94.8514,VALID,0,VALID,23.1159,VALID,15,VALID,0.546875,
2012-06-10, 03:00:04,VALID,999.034,VALID,0,VALID,94.8667,VALID,0,VALID,23.1354,VALID,15,VALID,0.528125,
2012-06-10, 03:01:04,VALID,999.017,VALID,0,VALID,94.8133,VALID,0,VALID,23.1354,VALID,15,VALID,0,
2012-06-10, 03:02:04,VALID,999,VALID,0,VALID,94.7599,VALID,0,VALID,23.1354,VALID,15,VALID,0.290625,
2012-06-10, 03:03:04,VALID,999.02,VALID,0,VALID,94.6836,VALID,0,VALID,23.1354,VALID,15,VALID,0.408203,
2012-06-10, 03:04:04,VALID,998.961,VALID,0,VALID,94.6531,VALID,0,VALID,23.1354,VALID,15,VALID,0.275391,
2012-06-10, 03:05:04,VALID,998.968,VALID,0,VALID,94.6836,VALID,0,VALID,23.1336,VALID,15,VALID,0.458203,
2012-06-10, 03:06:04,VALID,998.986,VALID,0,VALID,94.7141,VALID,0,VALID,23.1744,VALID,15,VALID,0.659766,
2012-06-10, 03:07:04,VALID,998.979,VALID,0,VALID,94.7141,VALID,0,VALID,23.1939,VALID,15,VALID,0.569531,
2012-06-10, 03:08:04,VALID,999.009,VALID,0,VALID,94.676,VALID,0,VALID,23.1939,VALID,15,VALID,0.455078,
2012-06-10, 03:09:04,VALID,998.998,VALID,0,VALID,94.6302,VALID,0,VALID,23.1939,VALID,15,VALID,0.441016,
2012-06-10, 03:10:04,VALID,999.007,VALID,0,VALID,94.5844,VALID,0,VALID,23.2134,VALID,15,VALID,0.505859,
2012-06-10, 03:11:04,VALID,998.987,VALID,0,VALID,94.6149,VALID,0,VALID,23.2329,VALID,15,VALID,0.140625,
2012-06-10, 03:12:04,VALID,998.96,VALID,0,VALID,94.6149,VALID,0,VALID,23.2329,VALID,15,VALID,0.0660156,
2012-06-10, 03:13:04,VALID,998.922,VALID,0,VALID,94.5768,VALID,0,VALID,23.2134,VALID,15,VALID,0.124609,
2012-06-10, 03:14:04,VALID,998.951,VALID,0,VALID,94.531,VALID,0,VALID,23.2134,VALID,15,VALID,0.171484,
2012-06-10, 03:15:04,VALID,998.915,VALID,0,VALID,94.531,VALID,0,VALID,23.1939,VALID,15,VALID,0.127734,
2012-06-10, 03:16:04,VALID,998.945,VALID,0,VALID,94.5462,VALID,0,VALID,23.2134,VALID,15,VALID,0.284375,
2012-06-10, 03:17:04,VALID,998.957,VALID,0,VALID,94.5844,VALID,0,VALID,23.2152,VALID,15,VALID,0.287109,
2012-06-10, 03:18:04,VALID,998.937,VALID,0,VALID,94.5539,VALID,0,VALID,23.1549,VALID,15,VALID,0,
2012-06-10, 03:19:04,VALID,998.948,VALID,0,VALID,94.5539,VALID,0,VALID,23.1566,VALID,15,VALID,0.368359,
2012-06-10, 03:20:04,VALID,998.944,VALID,0,VALID,94.6302,VALID,0,VALID,23.1354,VALID,15,VALID,0.319141,
2012-06-10, 03:21:04,VALID,998.969,VALID,0,VALID,94.6683,VALID,0,VALID,23.1159,VALID,15,VALID,0.162109,
2012-06-10, 03:22:04,VALID,998.992,VALID,0,VALID,94.5997,VALID,0,VALID,23.0769,VALID,15,VALID,0.173438,
2012-06-10, 03:23:04,VALID,998.987,VALID,0,VALID,94.5997,VALID,0,VALID,23.0378,VALID,15,VALID,0.182812,
2012-06-10, 03:24:04,VALID,999.019,VALID,0,VALID,94.737,VALID,0,VALID,23.0573,VALID,15,VALID,0.296875,
2012-06-10, 03:25:04,VALID,999.018,VALID,0,VALID,94.9201,VALID,0,VALID,23.0769,VALID,15,VALID,0.558984,
2012-06-10, 03:26:04,VALID,999.025,VALID,0,VALID,94.9735,VALID,0,VALID,23.0769,VALID,15,VALID,0.605078,
2012-06-10, 03:27:04,VALID,999.027,VALID,0,VALID,95.0345,VALID,0,VALID,23.0964,VALID,15,VALID,1.02695,
2012-06-10, 03:28:04,VALID,999.038,VALID,0,VALID,94.9506,VALID,0,VALID,23.0573,VALID,19,VALID,1.19922,
2012-06-10, 03:29:04,VALID,999.049,VALID,0,VALID,94.7065,VALID,0,VALID,22.9793,VALID,35,VALID,0.881641,
2012-06-10, 03:30:04,VALID,999.076,VALID,0,VALID,94.5386,VALID,0,VALID,22.9403,VALID,46,VALID,1.16641,
2012-06-10, 03:31:04,VALID,999.099,VALID,0,VALID,94.5386,VALID,0,VALID,22.942,VALID,46,VALID,1.275,
2012-06-10, 03:32:04,VALID,999.146,VALID,0,VALID,94.592,VALID,0,VALID,22.942,VALID,52,VALID,0.985156,
2012-06-10, 03:33:04,VALID,999.174,VALID,0,VALID,94.6531,VALID,0,VALID,22.9013,VALID,52,VALID,0.975391,
2012-06-10, 03:34:04,VALID,999.187,VALID,0,VALID,94.7141,VALID,0,VALID,22.9013,VALID,52,VALID,0.887891,
2012-06-10, 03:35:04,VALID,999.196,VALID,0,VALID,94.8438,VALID,0,VALID,22.903,VALID,49,VALID,1.11719,
2012-06-10, 03:36:04,VALID,999.191,VALID,0,VALID,94.8743,VALID,0,VALID,22.8623,VALID,38,VALID,1.04258,
2012-06-10, 03:37:04,VALID,999.2,VALID,0,VALID,94.9201,VALID,0,VALID,22.8623,VALID,37,VALID,1.37305,
2012-06-10, 03:38:04,VALID,999.171,VALID,0,VALID,94.9659,VALID,0,VALID,22.8427,VALID,36,VALID,1.51055,
2012-06-10, 03:39:04,VALID,999.22,VALID,0,VALID,95.004,VALID,0,VALID,22.8232,VALID,39,VALID,1.42891,
2012-06-10, 03:40:04,VALID,999.231,VALID,0,VALID,95.0193,VALID,0,VALID,22.8232,VALID,46,VALID,1.71055,
2012-06-10, 03:41:04,VALID,999.245,VALID,0,VALID,95.0651,VALID,0,VALID,22.8232,VALID,37,VALID,1.34141,
2012-06-10, 03:42:04,VALID,999.224,VALID,0,VALID,95.0803,VALID,0,VALID,22.8232,VALID,33,VALID,1.30352,
2012-06-10, 03:43:04,VALID,999.248,VALID,0,VALID,95.1414,VALID,0,VALID,22.8037,VALID,40,VALID,0.907031,
2012-06-10, 03:44:04,VALID,999.274,VALID,0,VALID,95.1566,VALID,0,VALID,22.8037,VALID,36,VALID,1.16289,
2012-06-10, 03:45:04,VALID,999.281,VALID,0,VALID,95.1948,VALID,0,VALID,22.7842,VALID,37,VALID,1.0207,
2012-06-10, 03:46:04,VALID,999.247,VALID,0,VALID,95.21,VALID,0,VALID,22.7842,VALID,37,VALID,0.740234,
2012-06-10, 03:47:04,VALID,999.269,VALID,0,VALID,95.2482,VALID,0,VALID,22.7842,VALID,37,VALID,0.578516,
2012-06-10, 03:48:04,VALID,999.242,VALID,0,VALID,95.2787,VALID,0,VALID,22.7647,VALID,37,VALID,0.403516,